Flag for Canada Weather past 2 weeks in Saguenay, Quebec, Canada

Now
12 °F

Cold.


Feels Like: -4 °F
Forecast: 12 / 22 °F
Wind: 15 mph from West

Location: Jonquiere Airport


UV Index: 0 (Low)

Visibility: N/A


Pressure: 30.02 "Hg

Humidity: 96%

Dew point: 11 °F

Location of SaguenayLocation

Historic Weather in Saguenay

°F

Saguenay temperature yesterday

Maximum temperature yesterday: 48 °F (at 1:00 AM)
Minimum temperature yesterday: 18 °F (at 11:00 PM)
Average temperature yesterday: 33 °F

Past Weeks' High & Low Weather Summary

 TemperatureHumidityPressure
High57 °F (Apr 14, 9:00 PM)100% (Apr 2, 10:00 PM)30.37 "Hg (Apr 2, 10:00 PM)
Low12 °F (Apr 1, 7:00 AM)28% (Apr 1, 5:00 PM)29.23 "Hg (Apr 8, 5:00 PM)
Average33 °F71%29.88 "Hg
* Reported Apr 1 5:00 AM — Apr 16 5:00 AM, Saguenay, Weather by CustomWeather, © 2014

Note: Actual official high and low records may vary slightly from our data, if they occured in-between our weather recording intervals... More about our weather records

Advertising

Historic Weather Conditions — Data for Previous 24 hours

 ConditionsComfort  
Time TempWeatherWind HumidityBarometerVisibility
5:00 AM
Apr 16
13 °FCold.21 mph94%29.97 "HgN/A
4:00 AM13 °FCold.18 mph90%29.89 "HgN/A
3:00 AM15 °FCold.17 mph92%29.89 "HgN/A
2:00 AM15 °FCold.16 mph93%29.82 "HgN/A
1:00 AM16 °FCold.17 mph93%29.80 "HgN/A
12:00 AM18 °FCold.15 mph93%29.79 "HgN/A
11:00 PM
Apr 15
18 °FCold.16 mph93%29.76 "HgN/A
10:00 PM18 °FCold.16 mph92%29.72 "HgN/A
9:00 PM20 °FCold.18 mph90%29.71 "HgN/A
8:00 PM21 °FCold.18 mph94%29.61 "HgN/A
7:00 PM24 °FCold.20 mph91%29.59 "HgN/A
6:00 PM28 °FChilly.16 mph94%29.53 "HgN/A
5:00 PM33 °FChilly.14 mph88%29.49 "HgN/A
4:00 PM33 °FChilly.10 mph96%29.47 "HgN/A
3:00 PM34 °FChilly.10 mph97%29.47 "HgN/A
2:00 PM34 °FChilly.12 mph97%29.46 "HgN/A
1:00 PM35 °FChilly.8 mph97%29.44 "HgN/A
12:00 PM36 °FChilly.9 mph95%29.46 "HgN/A
11:00 AM35 °FChilly.8 mph100%29.49 "HgN/A
10:00 AM36 °FChilly.5 mph98%29.51 "HgN/A
9:00 AM37 °FChilly.2 mph97%29.53 "HgN/A
8:00 AM36 °FChilly.3 mph97%29.59 "HgN/A
7:00 AM36 °FChilly.2 mph96%29.65 "HgN/A
6:00 AM36 °FChilly.7 mph96%29.66 "HgN/A
Weather by CustomWeather, © 2014

See weather overview